Regional Weather Roundup
Issued by NWS Jackson, KY

Home | Current Version | Previous Version | Graphics & Text | Print | Product List | Glossary On
Versions: 1 2 3 4 5 6 7 8 9 10 11 12 13 14 15 16 17 18 19 20 21 22 23 24 25 26 27 28 29 30 31 32 33 34 35 36 37 38 39 40 41 42 43 44 45 46 47 48 49 50
000
ASUS43 KJKL 040010
RWRJKL

EAST KENTUCKY HOURLY WEATHER ROUNDUP
NATIONAL WEATHER SERVICE JACKSON KY
800 PM EDT MON AUG 03 2015

NOTE: "FAIR" INDICATES FEW OR NO CLOUDS BELOW 12,000 FEET WITH
NO SIGNIFICANT WEATHER AND/OR OBSTRUCTIONS TO VISIBILITY.

* THESE REPORTS ARE NOT UNDER NWS QUALITY CONTROL AND MAY NOT
  REPORT WEATHER SUCH AS PRECIPITATION AND FOG.

KYZ079-080-083-085-087-088-110-112-115-119-120-040100
...EASTERN KENTUCKY...

CITY           SKY/WX    TMP DP  RH WIND       PRES   REMARKS
JACKSON        CLEAR     81  70  69 VRB3      29.92F
6HR MIN TEMP:  81; 6HR MAX TEMP:  87;

LONDON         CLEAR     86  66  51 SW6       29.94R
6HR MIN TEMP:  86; 6HR MAX TEMP:  90;

SOMERSET*      CLEAR     82  68  61 SW8       29.93S
MONTICELLO*    CLEAR     85  73  67 CALM      29.95S HX  91
6HR MIN TEMP:  85; 6HR MAX TEMP:  90;

WILLIAMSBURG*  CLEAR     84  72  65 CALM      29.95R
MIDDLESBORO*   CLEAR     83  70  63 CALM      29.96R
6HR MIN TEMP:  83; 6HR MAX TEMP:  89;

HAZARD APT*    CLEAR     82  68  61 SW7       29.93S
BLACK MTN*       N/A     68  63  83 SW6         N/A
PIKEVILLE APT* CLEAR     81  68  65 CALM      29.94S
BIG SANDY*     PTCLDY    84  69  60 SW5       29.92S
6HR MIN TEMP:  83; 6HR MAX TEMP:  88;

MOREHEAD APT*  CLOUDY    82  70  65 SW6       29.91S
$$

KYZ035-036-041-042-044-050-067-078-099-040100
...CENTRAL KENTUCKY...

CITY           SKY/WX    TMP DP  RH WIND       PRES   REMARKS
MT STERLING*   PTCLDY    82  72  69 SW5       29.89F
FLEMING/MASON* CLEAR     82  70  65 CALM      29.85F
DANVILLE*      CLEAR     82  70  65 W3        29.91S
RICHMOND*      CLEAR     84  70  61 SW6       29.90S
LEXINGTON      PTCLDY    84  71  65 SW8       29.88S
6HR MIN TEMP:  84; 6HR MAX TEMP:  89;

FRANKFORT      MOCLDY    85  69  58 SW9       29.86S
6HR MIN TEMP:  84; 6HR MAX TEMP:  89;

$$

KYZ091>093-OHZ055-061-077-WVZ005-015-034-035-042-040100
...SOUTHERN OHIO/WEST VIRGINIA...

CITY           SKY/WX    TMP DP  RH WIND       PRES   REMARKS
COVINGTON      MOCLDY    73  66  78 E5        29.87F
COLUMBUS       CLOUDY    81  68  64 W13G20    29.83R
DAYTON         PTCLDY    75  64  68 W8        29.87R
WILMINGTON     MOCLDY    74  62  66 W7        29.87R
HUNTINGTON     PTCLDY    81  69  67 S3        29.86F
CHARLESTON     PTCLDY    83  65  54 SW8       29.89R
PINEVILLE*     CLEAR     74  70  85 MISG      30.01R
BECKLEY        CLEAR     77  60  55 SW6       30.00R
BLUEFIELD      CLEAR     79  59  50 W6        30.04R
$$

VAZ002-007-008-TNZ017-027-036-066-071-040100
...SOUTHWEST VIRGINIA/EAST TENNESSEE...

CITY           SKY/WX    TMP DP  RH WIND       PRES   REMARKS
WISE*          CLEAR     79  57  47 SW6       30.05S
ABINGDON*      CLEAR     81  59  47 NW3       30.01R
BRISTOL        PTCLDY    85  58  39 W7        29.98R
KNOXVILLE      PTCLDY    87  58  37 SW5       29.94R
OAK RIDGE      CLEAR     88  64  44 CALM      29.96R
CROSSVILLE     CLEAR     81  68  64 CALM      30.01R
NASHVILLE      MOCLDY    91  64  40 W5        29.92S HX  92
$$

...KEY TO REMARKS...
VSB - VISIBILITY IN MILES
WCI - WIND CHILL INDEX
HX  - HEAT INDEX

$$


USA.gov is the U.S. government's official web portal to all federal, state and local government web resources and services.